| time (UTC) | temp F | wind direction | speed MPH | gust MPH | rain 1hr in | rain 24hr in | rain mn in | humidity % | barometer mb |
| 20260508012205 | 83 | 68 | 9.0 | 22.0 | 0.00 | 0.00 | 0.00 | 22 | 1014.9 |
| 20260508011704 | 83 | 358 | 10.0 | 22.0 | 0.00 | 0.00 | 0.00 | 22 | 1014.9 |
| 20260508011204 | 83 | 108 | 10.0 | 22.0 | 0.00 | 0.00 | 0.00 | 21 | 1014.7 |
| 20260508010709 | 83 | 50 | 11.0 | 22.0 | 0.00 | 0.00 | 0.00 | 21 | 1014.7 |
| 20260508010204 | 84 | 81 | 12.0 | 22.0 | 0.00 | 0.00 | 0.00 | 21 | 1014.6 |
| 20260508005704 | 84 | 89 | 12.0 | 23.0 | 0.00 | 0.00 | 0.00 | 21 | 1014.6 |
| 20260508004704 | 85 | 88 | 11.0 | 23.0 | 0.00 | 0.00 | 0.00 | 21 | 1014.6 |
| 20260508004204 | 85 | 86 | 10.0 | 20.0 | 0.00 | 0.00 | 0.00 | 21 | 1014.5 |
| 20260508003704 | 85 | 56 | 9.0 | 17.0 | 0.00 | 0.00 | 0.00 | 20 | 1014.5 |
| 20260508003204 | 86 | 92 | 8.0 | 17.0 | 0.00 | 0.00 | 0.00 | 20 | 1014.5 |
| 20260508002704 | 86 | 76 | 9.0 | 20.0 | 0.00 | 0.00 | 0.00 | 20 | 1014.5 |
| 20260508002204 | 86 | 72 | 9.0 | 20.0 | 0.00 | 0.00 | 0.00 | 20 | 1014.5 |
| 20260508001704 | 87 | 97 | 9.0 | 20.0 | 0.00 | 0.00 | 0.00 | 19 | 1014.5 |
| 20260508001204 | 87 | 79 | 8.0 | 17.0 | 0.00 | 0.00 | 0.00 | 19 | 1014.4 |
| 20260508000205 | 87 | 35 | 4.0 | 18.0 | 0.00 | 0.00 | 0.00 | 12 | 1014.4 |
| 20260507235704 | 88 | 73 | 6.0 | 18.0 | 0.00 | 0.00 | 0.00 | 11 | 1014.5 |
| 20260507235204 | 87 | 80 | 10.0 | 16.0 | 0.00 | 0.00 | 0.00 | 12 | 1014.6 |
| 20260507234704 | 87 | 59 | 9.0 | 12.0 | 0.00 | 0.00 | 0.00 | 12 | 1014.5 |
| 20260507234204 | 87 | 91 | 6.0 | 14.0 | 0.00 | 0.00 | 0.00 | 12 | 1014.6 |
| 20260507233704 | 87 | 106 | 6.0 | 18.0 | 0.00 | 0.00 | 0.00 | 12 | 1014.5 |
| 20260507232704 | 88 | 148 | 9.0 | 18.0 | 0.00 | 0.00 | 0.00 | 12 | 1014.5 |
| 20260507232204 | 88 | 100 | 7.0 | 16.0 | 0.00 | 0.00 | 0.00 | 12 | 1014.5 |
| 20260507231704 | 87 | 165 | 5.0 | 9.0 | 0.00 | 0.00 | 0.00 | 13 | 1014.5 |
| 20260507231204 | 88 | 117 | 4.0 | 9.0 | 0.00 | 0.00 | 0.00 | 12 | 1014.6 |
| 20260507230705 | 88 | 115 | 3.0 | 14.0 | 0.00 | 0.00 | 0.00 | 11 | 1014.6 |
| 20260507225204 | 87 | 82 | 9.0 | 14.0 | 0.00 | 0.00 | 0.00 | 11 | 1014.9 |
| 20260507224705 | 87 | 142 | 8.0 | 14.0 | 0.00 | 0.00 | 0.00 | 11 | 1014.9 |
| 20260507224204 | 87 | 82 | 7.0 | 12.0 | 0.00 | 0.00 | 0.00 | 11 | 1014.9 |
| 20260507223704 | 88 | 148 | 5.0 | 13.0 | 0.00 | 0.00 | 0.00 | 11 | 1015.0 |
| 20260507223204 | 87 | 119 | 4.0 | 13.0 | 0.00 | 0.00 | 0.00 | 11 | 1015.0 |
| 20260507222704 | 87 | 30 | 5.0 | 13.0 | 0.00 | 0.00 | 0.00 | 11 | 1015.1 |
| 20260507222205 | 87 | 31 | 6.0 | 12.0 | 0.00 | 0.00 | 0.00 | 11 | 1015.2 |
| 20260507221705 | 88 | 28 | 4.0 | 13.0 | 0.00 | 0.00 | 0.00 | 11 | 1015.2 |
| 20260507221204 | 88 | 41 | 3.0 | 13.0 | 0.00 | 0.00 | 0.00 | 12 | 1015.3 |
| 20260507220704 | 88 | 76 | 5.0 | 13.0 | 0.00 | 0.00 | 0.00 | 11 | 1015.3 |
| 20260507220204 | 88 | 67 | 4.0 | 11.0 | 0.00 | 0.00 | 0.00 | 11 | 1015.4 |
| 20260507215705 | 87 | 96 | 4.0 | 11.0 | 0.00 | 0.00 | 0.00 | 11 | 1015.5 |
| 20260507215204 | 86 | 7 | 4.0 | 16.0 | 0.00 | 0.00 | 0.00 | 11 | 1015.5 |
| 20260507214204 | 86 | 38 | 6.0 | 16.0 | 0.00 | 0.00 | 0.00 | 12 | 1015.7 |
| 20260507213704 | 86 | 29 | 3.0 | 9.0 | 0.00 | 0.00 | 0.00 | 12 | 1015.7 |
| 20260507213204 | 86 | 248 | 3.0 | 13.0 | 0.00 | 0.00 | 0.00 | 13 | 1015.9 |
| 20260507212706 | 87 | 163 | 5.0 | 13.0 | 0.00 | 0.00 | 0.00 | 12 | 1016.0 |
| 20260507212204 | 86 | 126 | 7.0 | 14.0 | 0.00 | 0.00 | 0.00 | 13 | 1016.1 |
| 20260507211204 | 87 | 125 | 6.0 | 14.0 | 0.00 | 0.00 | 0.00 | 12 | 1016.1 |
| 20260507210704 | 87 | 99 | 6.0 | 14.0 | 0.00 | 0.00 | 0.00 | 12 | 1016.1 |
| 20260507210204 | 87 | 76 | 3.0 | 16.0 | 0.00 | 0.00 | 0.00 | 12 | 1016.2 |
| 20260507205704 | 87 | 23 | 4.0 | 16.0 | 0.00 | 0.00 | 0.00 | 12 | 1016.2 |
| 20260507205204 | 86 | 100 | 6.0 | 16.0 | 0.00 | 0.00 | 0.00 | 12 | 1016.3 |
| 20260507204704 | 87 | 105 | 7.0 | 13.0 | 0.00 | 0.00 | 0.00 | 12 | 1016.4 |
| 20260507204204 | 87 | 115 | 7.0 | 13.0 | 0.00 | 0.00 | 0.00 | 13 | 1016.4 |
| 20260507203204 | 87 | 111 | 4.0 | 11.0 | 0.00 | 0.00 | 0.00 | 13 | 1016.4 |
| 20260507202704 | 87 | 161 | 4.0 | 15.0 | 0.00 | 0.00 | 0.00 | 13 | 1016.5 |
| 20260507202204 | 87 | 165 | 4.0 | 15.0 | 0.00 | 0.00 | 0.00 | 13 | 1016.6 |
| 20260507201204 | 86 | 109 | 4.0 | 11.0 | 0.00 | 0.00 | 0.00 | 14 | 1016.6 |
| 20260507200204 | 85 | 39 | 4.0 | 11.0 | 0.00 | 0.00 | 0.00 | 15 | 1016.8 |
| 20260507195704 | 85 | 269 | 4.0 | 11.0 | 0.00 | 0.00 | 0.00 | 15 | 1017.0 |
| 20260507195204 | 85 | 80 | 3.0 | 11.0 | 0.00 | 0.00 | 0.00 | 15 | 1017.0 |
| 20260507194704 | 85 | 228 | 4.0 | 11.0 | 0.00 | 0.00 | 0.00 | 14 | 1017.0 |
| 20260507194204 | 85 | 179 | 5.0 | 11.0 | 0.00 | 0.00 | 0.00 | 16 | 1017.1 |
| 20260507193704 | 84 | 113 | 5.0 | 11.0 | 0.00 | 0.00 | 0.00 | 16 | 1017.1 |
| 20260507193204 | 85 | 82 | 5.0 | 11.0 | 0.00 | 0.00 | 0.00 | 16 | 1017.2 |
| 20260507192705 | 84 | 99 | 6.0 | 12.0 | 0.00 | 0.00 | 0.00 | 17 | 1017.2 |
| 20260507192204 | 84 | 111 | 5.0 | 12.0 | 0.00 | 0.00 | 0.00 | 17 | 1017.3 |
| 20260507191704 | 84 | 129 | 5.0 | 12.0 | 0.00 | 0.00 | 0.00 | 17 | 1017.3 |
| 20260507191205 | 84 | 111 | 5.0 | 11.0 | 0.00 | 0.00 | 0.00 | 16 | 1017.4 |
| 20260507190204 | 83 | 310 | 3.0 | 7.0 | 0.00 | 0.00 | 0.00 | 18 | 1017.5 |
| 20260507185704 | 83 | 88 | 3.0 | 8.0 | 0.00 | 0.00 | 0.00 | 17 | 1017.6 |
| 20260507185204 | 84 | 88 | 3.0 | 8.0 | 0.00 | 0.00 | 0.00 | 18 | 1017.7 |
| 20260507184705 | 83 | 136 | 4.0 | 10.0 | 0.00 | 0.00 | 0.00 | 19 | 1017.7 |
| 20260507184204 | 83 | 168 | 5.0 | 10.0 | 0.00 | 0.00 | 0.00 | 19 | 1017.8 |
| 20260507183704 | 83 | 146 | 5.0 | 10.0 | 0.00 | 0.00 | 0.00 | 20 | 1017.8 |
| 20260507183204 | 83 | 112 | 3.0 | 10.0 | 0.00 | 0.00 | 0.00 | 20 | 1018.0 |
| 20260507182704 | 82 | 301 | 3.0 | 10.0 | 0.00 | 0.00 | 0.00 | 20 | 1018.0 |
| 20260507182204 | 82 | 106 | 5.0 | 10.0 | 0.00 | 0.00 | 0.00 | 21 | 1018.1 |
| 20260507181704 | 82 | 95 | 4.0 | 8.0 | 0.00 | 0.00 | 0.00 | 20 | 1018.1 |
| 20260507181204 | 82 | 135 | 3.0 | 10.0 | 0.00 | 0.00 | 0.00 | 22 | 1018.1 |
| 20260507180704 | 81 | 130 | 4.0 | 10.0 | 0.00 | 0.00 | 0.00 | 22 | 1018.2 |
| 20260507180204 | 81 | 127 | 4.0 | 10.0 | 0.00 | 0.00 | 0.00 | 22 | 1018.2 |
| 20260507175704 | 81 | 122 | 3.0 | 10.0 | 0.00 | 0.00 | 0.00 | 22 | 1018.2 |
| 20260507175204 | 81 | 105 | 4.0 | 9.0 | 0.00 | 0.00 | 0.00 | 23 | 1018.2 |
| 20260507174205 | 80 | 149 | 4.0 | 9.0 | 0.00 | 0.00 | 0.00 | 23 | 1018.3 |
| 20260507173705 | 80 | 130 | 4.0 | 9.0 | 0.00 | 0.00 | 0.00 | 23 | 1018.2 |
| 20260507173204 | 80 | 89 | 4.0 | 10.0 | 0.00 | 0.00 | 0.00 | 22 | 1018.2 |
| 20260507172704 | 80 | 103 | 3.0 | 10.0 | 0.00 | 0.00 | 0.00 | 23 | 1018.2 |
| 20260507172204 | 79 | 121 | 4.0 | 10.0 | 0.00 | 0.00 | 0.00 | 23 | 1018.2 |
| 20260507171706 | 80 | 140 | 3.0 | 8.0 | 0.00 | 0.00 | 0.00 | 23 | 1018.3 |
| 20260507170204 | 78 | 96 | 3.0 | 8.0 | 0.00 | 0.00 | 0.00 | 25 | 1018.3 |
| 20260507165704 | 78 | 96 | 3.0 | 5.0 | 0.00 | 0.00 | 0.00 | 24 | 1018.3 |
| 20260507165204 | 77 | 348 | 3.0 | 5.0 | 0.00 | 0.00 | 0.00 | 25 | 1018.2 |
| 20260507164706 | 77 | 348 | 2.0 | 5.0 | 0.00 | 0.00 | 0.00 | 25 | 1018.2 |
| 20260507164204 | 76 | 346 | 1.0 | 5.0 | 0.00 | 0.00 | 0.00 | 26 | 1018.2 |
| 20260507163704 | 76 | 346 | 2.0 | 5.0 | 0.00 | 0.00 | 0.00 | 27 | 1018.3 |
| 20260507162204 | 74 | 340 | 2.0 | 4.0 | 0.00 | 0.00 | 0.00 | 27 | 1018.5 |
| 20260507161704 | 74 | 340 | 2.0 | 4.0 | 0.00 | 0.00 | 0.00 | 27 | 1018.5 |
| 20260507161204 | 75 | 340 | 2.0 | 4.0 | 0.00 | 0.00 | 0.00 | 26 | 1018.5 |
| 20260507160204 | 75 | 339 | 1.0 | 4.0 | 0.00 | 0.00 | 0.00 | 27 | 1018.5 |
| 20260507155704 | 74 | 339 | 2.0 | 3.0 | 0.00 | 0.00 | 0.00 | 28 | 1018.5 |
| 20260507154704 | 74 | 335 | 1.0 | 3.0 | 0.00 | 0.00 | 0.00 | 28 | 1018.6 |
| 20260507154204 | 73 | 335 | 1.0 | 3.0 | 0.00 | 0.00 | 0.00 | 29 | 1018.6 |
| 20260507153204 | 72 | 335 | 1.0 | 3.0 | 0.00 | 0.00 | 0.00 | 28 | 1018.6 |
| 20260507152705 | 72 | 335 | 1.0 | 4.0 | 0.00 | 0.00 | 0.00 | 30 | 1018.6 |
| 20260507152205 | 71 | 335 | 1.0 | 4.0 | 0.00 | 0.00 | 0.00 | 31 | 1018.6 |
| 20260507151704 | 70 | 335 | 2.0 | 4.0 | 0.00 | 0.00 | 0.00 | 32 | 1018.6 |
| 20260507151205 | 70 | 335 | 2.0 | 5.0 | 0.00 | 0.00 | 0.00 | 32 | 1018.6 |
| 20260507150704 | 69 | 335 | 3.0 | 5.0 | 0.00 | 0.00 | 0.00 | 32 | 1018.6 |
| 20260507150204 | 69 | 335 | 3.0 | 5.0 | 0.00 | 0.00 | 0.00 | 33 | 1018.5 |
| 20260507145705 | 68 | 338 | 3.0 | 5.0 | 0.00 | 0.00 | 0.00 | 33 | 1018.5 |
| 20260507145204 | 68 | 341 | 3.0 | 5.0 | 0.00 | 0.00 | 0.00 | 33 | 1018.5 |
| 20260507144704 | 67 | 343 | 2.0 | 5.0 | 0.00 | 0.00 | 0.00 | 34 | 1018.6 |
| 20260507144204 | 67 | 343 | 2.0 | 5.0 | 0.00 | 0.00 | 0.00 | 34 | 1018.6 |
| 20260507143704 | 66 | 353 | 2.0 | 4.0 | 0.00 | 0.00 | 0.00 | 35 | 1018.6 |
| 20260507143204 | 65 | 353 | 2.0 | 4.0 | 0.00 | 0.00 | 0.00 | 37 | 1018.5 |
| 20260507142704 | 64 | 353 | 2.0 | 4.0 | 0.00 | 0.00 | 0.00 | 39 | 1018.5 |
| 20260507142204 | 63 | 353 | 2.0 | 3.0 | 0.00 | 0.00 | 0.00 | 40 | 1018.4 |
| 20260507141704 | 61 | 353 | 2.0 | 3.0 | 0.00 | 0.00 | 0.00 | 42 | 1018.4 |
| 20260507141204 | 60 | 353 | 2.0 | 4.0 | 0.00 | 0.00 | 0.00 | 43 | 1018.4 |
| 20260507140705 | 60 | 353 | 2.0 | 4.0 | 0.00 | 0.00 | 0.00 | 43 | 1018.4 |
| 20260507140204 | 59 | 353 | 2.0 | 5.0 | 0.00 | 0.00 | 0.00 | 44 | 1018.3 |
| 20260507135704 | 58 | 353 | 3.0 | 5.0 | 0.00 | 0.00 | 0.00 | 45 | 1018.2 |
| 20260507135204 | 57 | 353 | 3.0 | 5.0 | 0.00 | 0.00 | 0.00 | 46 | 1018.2 |
| 20260507134206 | 55 | 353 | 3.0 | 4.0 | 0.00 | 0.00 | 0.00 | 47 | 1018.1 |
| 20260507133704 | 55 | 353 | 2.0 | 5.0 | 0.00 | 0.00 | 0.00 | 48 | 1018.2 |
| 20260507133204 | 54 | 353 | 3.0 | 6.0 | 0.00 | 0.00 | 0.00 | 48 | 1018.1 |
| 20260507132705 | 53 | 353 | 4.0 | 6.0 | 0.00 | 0.00 | 0.00 | 49 | 1018.0 |
| 20260507131704 | 53 | 353 | 4.0 | 6.0 | 0.00 | 0.00 | 0.00 | 49 | 1018.1 |
| 20260507131204 | 52 | 353 | 3.0 | 5.0 | 0.00 | 0.00 | 0.00 | 50 | 1018.1 |
| 20260507130704 | 52 | 353 | 3.0 | 5.0 | 0.00 | 0.00 | 0.00 | 49 | 1017.8 |
| 20260507130205 | 52 | 353 | 3.0 | 5.0 | 0.00 | 0.00 | 0.00 | 49 | 1018.0 |
| 20260507125706 | 53 | 353 | 3.0 | 6.0 | 0.00 | 0.00 | 0.00 | 48 | 1017.8 |
| 20260507124704 | 53 | 353 | 4.0 | 6.0 | 0.00 | 0.00 | 0.00 | 48 | 1017.7 |
| 20260507124204 | 53 | 353 | 4.0 | 6.0 | 0.00 | 0.00 | 0.00 | 48 | 1017.7 |
| 20260507123704 | 53 | 353 | 4.0 | 6.0 | 0.00 | 0.00 | 0.00 | 47 | 1017.8 |
| 20260507123204 | 53 | 353 | 4.0 | 6.0 | 0.00 | 0.00 | 0.00 | 47 | 1017.7 |
| 20260507122204 | 53 | 353 | 5.0 | 8.0 | 0.00 | 0.00 | 0.00 | 47 | 1017.7 |
| 20260507121705 | 53 | 353 | 5.0 | 8.0 | 0.00 | 0.00 | 0.00 | 47 | 1017.8 |
| 20260507120205 | 53 | 3 | 4.0 | 5.0 | 0.00 | 0.00 | 0.00 | 46 | 1017.8 |
| 20260507115704 | 54 | 3 | 4.0 | 5.0 | 0.00 | 0.00 | 0.00 | 46 | 1018.0 |
| 20260507115205 | 55 | 3 | 3.0 | 4.0 | 0.00 | 0.00 | 0.00 | 46 | 1018.0 |
| 20260507114204 | 55 | 3 | 4.0 | 7.0 | 0.00 | 0.00 | 0.00 | 45 | 1017.8 |
| 20260507113705 | 55 | 3 | 5.0 | 7.0 | 0.00 | 0.00 | 0.00 | 45 | 1017.8 |
| 20260507113204 | 55 | 7 | 5.0 | 7.0 | 0.00 | 0.00 | 0.00 | 45 | 1017.7 |
| 20260507112705 | 55 | 9 | 5.0 | 6.0 | 0.00 | 0.00 | 0.00 | 45 | 1017.8 |
| 20260507112204 | 56 | 20 | 4.0 | 6.0 | 0.00 | 0.00 | 0.00 | 44 | 1017.8 |
| 20260507111704 | 57 | 23 | 4.0 | 5.0 | 0.00 | 0.00 | 0.00 | 43 | 1017.8 |
| 20260507111204 | 58 | 28 | 4.0 | 5.0 | 0.00 | 0.00 | 0.00 | 42 | 1018.0 |
| 20260507110705 | 58 | 32 | 3.0 | 5.0 | 0.00 | 0.00 | 0.00 | 42 | 1018.0 |
| 20260507110204 | 59 | 32 | 3.0 | 6.0 | 0.00 | 0.00 | 0.00 | 41 | 1017.8 |
| 20260507105704 | 60 | 32 | 3.0 | 6.0 | 0.00 | 0.00 | 0.00 | 40 | 1017.7 |
| 20260507105204 | 60 | 32 | 4.0 | 6.0 | 0.00 | 0.00 | 0.00 | 40 | 1017.8 |
| 20260507104704 | 59 | 32 | 4.0 | 5.0 | 0.00 | 0.00 | 0.00 | 40 | 1017.7 |
| 20260507104204 | 59 | 33 | 4.0 | 5.0 | 0.00 | 0.00 | 0.00 | 41 | 1017.8 |
| 20260507103704 | 60 | 33 | 3.0 | 5.0 | 0.00 | 0.00 | 0.00 | 40 | 1017.7 |
| 20260507103204 | 60 | 33 | 3.0 | 5.0 | 0.00 | 0.00 | 0.00 | 39 | 1017.8 |
| 20260507102704 | 61 | 33 | 3.0 | 5.0 | 0.00 | 0.00 | 0.00 | 39 | 1017.8 |
| 20260507102204 | 61 | 33 | 3.0 | 5.0 | 0.00 | 0.00 | 0.00 | 39 | 1017.8 |
| 20260507101205 | 60 | 33 | 4.0 | 5.0 | 0.00 | 0.00 | 0.00 | 39 | 1017.8 |
| 20260507100704 | 60 | 33 | 4.0 | 5.0 | 0.00 | 0.00 | 0.00 | 39 | 1017.8 |
| 20260507100204 | 60 | 34 | 4.0 | 5.0 | 0.00 | 0.00 | 0.00 | 40 | 1017.7 |
| 20260507095704 | 60 | 34 | 3.0 | 5.0 | 0.00 | 0.00 | 0.00 | 40 | 1017.8 |
| 20260507095204 | 60 | 34 | 3.0 | 5.0 | 0.00 | 0.00 | 0.00 | 41 | 1017.8 |
| 20260507094704 | 60 | 34 | 3.0 | 5.0 | 0.00 | 0.00 | 0.00 | 42 | 1017.8 |
| 20260507094204 | 60 | 34 | 3.0 | 4.0 | 0.00 | 0.00 | 0.00 | 42 | 1018.0 |
| 20260507093704 | 61 | 34 | 3.0 | 4.0 | 0.00 | 0.00 | 0.00 | 41 | 1017.8 |
| 20260507093204 | 61 | 34 | 3.0 | 5.0 | 0.00 | 0.00 | 0.00 | 40 | 1018.0 |
| 20260507092704 | 62 | 34 | 3.0 | 5.0 | 0.00 | 0.00 | 0.00 | 40 | 1018.0 |
| 20260507092204 | 62 | 34 | 3.0 | 5.0 | 0.00 | 0.00 | 0.00 | 40 | 1018.0 |
| 20260507091704 | 63 | 34 | 3.0 | 5.0 | 0.00 | 0.00 | 0.00 | 39 | 1018.1 |
| 20260507090704 | 63 | 34 | 4.0 | 7.0 | 0.00 | 0.00 | 0.00 | 39 | 1018.1 |
| 20260507090204 | 63 | 33 | 4.0 | 7.0 | 0.00 | 0.00 | 0.00 | 39 | 1018.2 |
| 20260507085705 | 63 | 32 | 4.0 | 6.0 | 0.00 | 0.00 | 0.00 | 40 | 1018.2 |
| 20260507084704 | 63 | 28 | 4.0 | 6.0 | 0.00 | 0.00 | 0.00 | 41 | 1018.2 |
| 20260507084204 | 62 | 17 | 3.0 | 5.0 | 0.00 | 0.00 | 0.00 | 42 | 1018.2 |
| 20260507083704 | 62 | 14 | 3.0 | 5.0 | 0.00 | 0.00 | 0.00 | 42 | 1018.3 |
| 20260507083204 | 62 | 13 | 3.0 | 5.0 | 0.00 | 0.00 | 0.00 | 42 | 1018.3 |
| 20260507082704 | 62 | 12 | 3.0 | 4.0 | 0.00 | 0.00 | 0.00 | 43 | 1018.3 |
| 20260507082204 | 62 | 12 | 3.0 | 4.0 | 0.00 | 0.00 | 0.00 | 44 | 1018.3 |
| 20260507081204 | 61 | 11 | 3.0 | 4.0 | 0.00 | 0.00 | 0.00 | 45 | 1018.2 |
| 20260507080704 | 61 | 11 | 3.0 | 4.0 | 0.00 | 0.00 | 0.00 | 46 | 1018.2 |
| 20260507075704 | 60 | 11 | 3.0 | 4.0 | 0.00 | 0.00 | 0.00 | 49 | 1018.2 |
| 20260507075204 | 58 | 11 | 2.0 | 4.0 | 0.00 | 0.00 | 0.00 | 51 | 1018.2 |
| 20260507074704 | 58 | 11 | 3.0 | 4.0 | 0.00 | 0.00 | 0.00 | 50 | 1018.2 |
| 20260507073705 | 61 | 11 | 2.0 | 4.0 | 0.00 | 0.00 | 0.00 | 47 | 1018.2 |
| 20260507073204 | 61 | 11 | 3.0 | 4.0 | 0.00 | 0.00 | 0.00 | 47 | 1018.2 |
| 20260507072704 | 60 | 10 | 3.0 | 4.0 | 0.00 | 0.00 | 0.00 | 48 | 1018.2 |
| 20260507072204 | 60 | 10 | 3.0 | 4.0 | 0.00 | 0.00 | 0.00 | 49 | 1018.2 |
| 20260507070704 | 59 | 9 | 3.0 | 4.0 | 0.00 | 0.00 | 0.00 | 50 | 1018.2 |
| 20260507070204 | 59 | 9 | 3.0 | 5.0 | 0.00 | 0.00 | 0.00 | 50 | 1018.1 |
| 20260507065704 | 59 | 9 | 4.0 | 5.0 | 0.00 | 0.00 | 0.00 | 51 | 1018.2 |
| 20260507065204 | 58 | 9 | 4.0 | 5.0 | 0.00 | 0.00 | 0.00 | 51 | 1018.2 |
| 20260507064704 | 58 | 9 | 3.0 | 5.0 | 0.00 | 0.00 | 0.00 | 51 | 1018.2 |
| 20260507063704 | 59 | 9 | 4.0 | 7.0 | 0.00 | 0.00 | 0.00 | 49 | 1018.2 |
| 20260507063205 | 60 | 9 | 4.0 | 7.0 | 0.00 | 0.00 | 0.00 | 48 | 1018.2 |
| 20260507062704 | 61 | 17 | 3.0 | 5.0 | 0.00 | 0.00 | 0.00 | 47 | 1018.2 |
| 20260507061704 | 63 | 39 | 2.0 | 5.0 | 0.00 | 0.00 | 0.00 | 47 | 1018.1 |
| 20260507061205 | 63 | 39 | 2.0 | 5.0 | 0.00 | 0.00 | 0.00 | 47 | 1018.1 |
| 20260507060204 | 64 | 39 | 3.0 | 4.0 | 0.00 | 0.00 | 0.00 | 46 | 1018.1 |
| 20260507055704 | 64 | 39 | 2.0 | 4.0 | 0.00 | 0.00 | 0.00 | 46 | 1018.1 |
| 20260507055204 | 63 | 39 | 2.0 | 4.0 | 0.00 | 0.00 | 0.00 | 46 | 1018.1 |
| 20260507054704 | 64 | 39 | 2.0 | 3.0 | 0.00 | 0.00 | 0.00 | 46 | 1018.1 |
| 20260507054204 | 64 | 39 | 2.0 | 3.0 | 0.00 | 0.00 | 0.00 | 46 | 1018.1 |
| 20260507053704 | 64 | 39 | 1.0 | 3.0 | 0.00 | 0.00 | 0.00 | 45 | 1018.1 |
| 20260507053205 | 64 | 39 | 1.0 | 3.0 | 0.00 | 0.00 | 0.00 | 44 | 1018.1 |
| 20260507052204 | 65 | 39 | 1.0 | 4.0 | 0.00 | 0.00 | 0.00 | 44 | 1018.1 |
| 20260507051204 | 66 | 39 | 2.0 | 4.0 | 0.00 | 0.00 | 0.00 | 43 | 1018.1 |
| 20260507050704 | 66 | 39 | 2.0 | 4.0 | 0.00 | 0.00 | 0.00 | 43 | 1018.1 |
| 20260507050204 | 67 | 40 | 2.0 | 4.0 | 0.00 | 0.00 | 0.00 | 42 | 1018.1 |
| 20260507045705 | 67 | 40 | 2.0 | 5.0 | 0.00 | 0.00 | 0.00 | 41 | 1018.0 |
| 20260507044704 | 67 | 39 | 3.0 | 5.0 | 0.00 | 0.00 | 0.00 | 41 | 1017.8 |
| 20260507044204 | 67 | 39 | 3.0 | 6.0 | 0.00 | 0.00 | 0.00 | 39 | 1017.8 |
| 20260507043704 | 67 | 38 | 3.0 | 7.0 | 0.00 | 0.00 | 0.00 | 39 | 1017.8 |
| 20260507043204 | 67 | 38 | 4.0 | 9.0 | 0.00 | 0.00 | 0.00 | 38 | 1017.7 |
| 20260507042204 | 68 | 32 | 4.0 | 7.0 | 0.00 | 0.00 | 0.00 | 38 | 1017.6 |
| 20260507041704 | 67 | 37 | 3.0 | 6.0 | 0.00 | 0.00 | 0.00 | 38 | 1017.6 |
| 20260507041204 | 67 | 42 | 3.0 | 5.0 | 0.00 | 0.00 | 0.00 | 39 | 1017.6 |
| 20260507040705 | 67 | 70 | 3.0 | 5.0 | 0.00 | 0.00 | 0.00 | 40 | 1017.5 |
| 20260507035704 | 67 | 71 | 3.0 | 5.0 | 0.00 | 0.00 | 0.00 | 40 | 1017.4 |
| 20260507035204 | 67 | 76 | 3.0 | 5.0 | 0.00 | 0.00 | 0.00 | 40 | 1017.4 |
| 20260507034704 | 66 | 77 | 2.0 | 7.0 | 0.00 | 0.00 | 0.00 | 39 | 1017.3 |
| 20260507033704 | 65 | 82 | 3.0 | 7.0 | 0.00 | 0.00 | 0.00 | 40 | 1017.1 |
| 20260507033205 | 65 | 328 | 5.0 | 8.0 | 0.00 | 0.00 | 0.00 | 42 | 1017.2 |
| 20260507032704 | 65 | 320 | 5.0 | 8.0 | 0.00 | 0.00 | 0.00 | 41 | 1016.7 |
| 20260507032204 | 66 | 320 | 5.0 | 8.0 | 0.00 | 0.00 | 0.00 | 40 | 1016.6 |
| 20260507031705 | 67 | 320 | 5.0 | 8.0 | 0.00 | 0.00 | 0.00 | 39 | 1016.6 |
| 20260507031205 | 68 | 320 | 5.0 | 8.0 | 0.00 | 0.00 | 0.00 | 38 | 1016.5 |
| 20260507030705 | 68 | 321 | 5.0 | 8.0 | 0.00 | 0.00 | 0.00 | 38 | 1016.5 |
| 20260507030204 | 69 | 320 | 5.0 | 12.0 | 0.00 | 0.00 | 0.00 | 37 | 1016.5 |
| 20260507025704 | 69 | 319 | 6.0 | 12.0 | 0.00 | 0.00 | 0.00 | 36 | 1016.5 |
| 20260507025204 | 71 | 311 | 7.0 | 12.0 | 0.00 | 0.00 | 0.00 | 34 | 1016.4 |
| 20260507024704 | 72 | 325 | 6.0 | 9.0 | 0.00 | 0.00 | 0.00 | 31 | 1016.4 |
| 20260507024204 | 73 | 309 | 4.0 | 4.0 | 0.00 | 0.00 | 0.00 | 29 | 1016.4 |
| 20260507023205 | 75 | 228 | 0.0 | 4.0 | 0.00 | 0.00 | 0.00 | 22 | 1016.3 |
| 20260507022706 | 75 | 228 | 2.0 | 4.0 | 0.00 | 0.00 | 0.00 | 22 | 1016.3 |
| 20260507021704 | 76 | 358 | 2.0 | 4.0 | 0.00 | 0.00 | 0.00 | 21 | 1016.2 |
| 20260507020204 | 76 | 358 | 2.0 | 4.0 | 0.00 | 0.00 | 0.00 | 21 | 1016.2 |
| 20260507015704 | 76 | 358 | 2.0 | 9.0 | 0.00 | 0.00 | 0.00 | 20 | 1016.2 |
| 20260507015205 | 76 | 358 | 2.0 | 10.0 | 0.00 | 0.00 | 0.00 | 21 | 1016.2 |
| 20260507014204 | 77 | 230 | 5.0 | 10.0 | 0.00 | 0.00 | 0.00 | 19 | 1016.1 |
| 20260507013704 | 77 | 240 | 4.0 | 10.0 | 0.00 | 0.00 | 0.00 | 19 | 1016.1 |
| 20260507013204 | 78 | 222 | 4.0 | 12.0 | 0.00 | 0.00 | 0.00 | 19 | 1016.1 |